Hourly Data Report for April 29, 2006

TORONTO CITY
ONTARIO

43°40'00.000" N
79°24'00.000" W
112.50 m
6158355
71508
XTO

Download Data

Hourly Data (April 2006)
Hourly Data Report for April 29, 2006
TIME
LST
Temp Definition
°C
Dew Point Definition
°C
Rel Hum Definition
%
Precip. Amount Definition
mm

Wind Dir Definition
10's deg

Wind Spd Definition
km/h
Visibility Definition
km
Stn Press Definition
kPa
Hmdx Definition


Wind Chill Definition


Weather Definition


00:00 8.0 -5.7 37   LegendMM LegendMM   101.64     LegendNANA
01:00 6.6 -6.3 39   LegendMM LegendMM   101.69     LegendNANA
02:00 7.6 -5.9 38   LegendMM LegendMM   101.71     LegendNANA
03:00 6.3 -4.7 45   LegendMM LegendMM   101.72     LegendNANA
04:00 6.1 -5.0 45   LegendMM LegendMM   101.72     LegendNANA
05:00 6.2 -5.2 44   LegendMM LegendMM   101.71     LegendNANA
06:00 5.6 -4.5 48   LegendMM LegendMM   101.84     LegendNANA
07:00 8.4 -4.9 39   LegendMM LegendMM   101.89     LegendNANA
08:00 8.9 -2.7 44   LegendMM LegendMM   101.87     LegendNANA
09:00 9.4 -3.8 39   LegendMM LegendMM   101.84     LegendNANA
10:00 9.9 -4.0 37   LegendMM LegendMM   101.87     LegendNANA
11:00 11.7 -7.2 26   LegendMM LegendMM   101.83     LegendNANA
12:00 12.3 -6.0 27   LegendMM LegendMM   101.83     LegendNANA
13:00 12.9 -9.2 21   LegendMM LegendMM   101.79     LegendNANA
14:00 13.2 -10.8 18   LegendMM LegendMM   101.74     LegendNANA
15:00 13.9 -11.5 16   LegendMM LegendMM   101.70     LegendNANA
16:00 13.8 -15.6 12   LegendMM LegendMM   101.67     LegendNANA
17:00 13.5 -18.3 9   LegendMM LegendMM   101.64     LegendNANA
18:00 12.8 -14.7 13   LegendMM LegendMM   101.60     LegendNANA
19:00 11.6 -12.8 17   LegendMM LegendMM   101.53     LegendNANA
20:00 10.8 -13.0 17   LegendMM LegendMM   101.52     LegendNANA
21:00 10.3 -9.2 24   LegendMM LegendMM   101.61     LegendNANA
22:00 10.2 -6.8 30   LegendMM LegendMM   101.61     LegendNANA
23:00 10.3 -6.6 30   LegendMM LegendMM   101.60     LegendNANA

Notes on Data Quality.

Legend

  • E = Estimated
  • M = Missing
  • NA = Not Available*
  • [empty] = Indicates an unobserved value
Date modified: